FW5273 Weather Reports


time (UTC)temp
F
wind
direction
speed
knots
gust
knots
rain 1hr
in
rain 24hr
in
rain mn
in
humidity
%
barometer
mb
20260508044037 0 0.0 0.0 0.00 0.00 0.00
20260508043036 0 0.0 0.0 0.00 0.00 0.00
20260508042038 0 0.0 0.0 0.00 0.00 0.00
20260508041036 0 0.0 0.0 0.00 0.00 0.00
20260508040058 0 0.0 0.0 0.00 0.00 0.00
20260508035036 0 0.0 0.0 0.00 0.00 0.00
20260508034038 0 0.0 0.0 0.00 0.00 0.00
20260508033039 0 0.0 0.0 0.00 0.00 0.00
20260508032036 0 0.0 0.0 0.00 0.00 0.00
20260508031036 0 0.0 0.0 0.00 0.00 0.00
20260508030116 0 0.0 0.0 0.00 0.00 0.00
20260508025037 0 0.0 0.0 0.00 0.00 0.00
20260508024036 0 0.0 0.0 0.00 0.00 0.00
20260508023039 0 0.0 0.0 0.00 0.00 0.00
20260508022057 0 0.0 0.0 0.00 0.00 0.00
20260508021036 0 0.0 0.0 0.00 0.00 0.00
20260508020035 0 0.0 0.0 0.00 0.00 0.00
20260508015038 0 0.0 0.0 0.00 0.00 0.00
20260508014619 50 0.0 0.0 0.00 0.00 0.00 35
20260508014052 50 0 3.5 4.3 0.00 0.00 0.00 35
20260508013540 50 0 3.5 6.1 0.00 0.00 0.00 35
20260508012539 50 0 0.9 4.3 0.00 0.00 0.00 37
20260508011539 51 0 1.7 4.3 0.00 0.00 0.00 36
20260508010539 51 0 4.3 7.8 0.00 0.00 0.00 35
20260508005540 52 0 3.5 7.0 0.00 0.00 0.00 34
20260508004541 52 0 5.2 8.7 0.00 0.00 0.00 34
20260508003538 52 0 2.6 4.3 0.00 0.00 0.00 34
20260508002542 52 0 6.1 8.7 0.00 0.00 0.00 33
20260508001540 52 0 7.0 8.7 0.00 0.00 0.00 32
20260508000540 53 0 3.5 8.7 0.00 0.00 0.00 33
20260507235542 53 0 5.2 8.7 0.00 0.00 0.00 32
20260507234541 53 0 3.5 8.7 0.00 0.00 0.00 32
20260507233541 53 0 3.5 8.7 0.00 0.00 0.00 33
20260507232601 52 0 6.1 8.7 0.00 0.00 0.00 32
20260507231540 52 0 5.2 10.4 0.00 0.00 0.00 32
20260507230541 53 0 4.3 8.7 0.00 0.00 0.00 32
20260507225540 53 0 4.3 7.8 0.00 0.00 0.00 32
20260507224539 52 0 6.1 8.7 0.00 0.00 0.00 32
20260507223539 53 0 5.2 8.7 0.00 0.00 0.00 32
20260507222539 52 0 7.0 9.6 0.00 0.00 0.00 32
20260507221559 52 0 7.8 10.4 0.00 0.00 0.00 32
20260507220541 53 0 5.2 9.6 0.00 0.00 0.00 32
20260507215558 53 0 5.2 10.4 0.00 0.00 0.00 32
20260507214541 52 0 5.2 9.6 0.00 0.00 0.00 30
20260507213601 52 0 6.1 9.6 0.00 0.00 0.00 30
20260507212539 53 0 5.2 9.6 0.00 0.00 0.00 28
20260507211540 53 0 5.2 9.6 0.00 0.00 0.00 25
20260507210541 52 0 6.1 8.7 0.00 0.00 0.00 25
20260507205539 52 0 7.0 9.6 0.00 0.00 0.00 28
20260507204538 53 0 4.3 7.8 0.00 0.00 0.00 30
20260507203539 52 0 3.5 8.7 0.00 0.00 0.00 30
20260507202600 53 0 3.5 8.7 0.00 0.00 0.00 31
20260507201540 52 0 1.7 7.8 0.00 0.00 0.00 32
20260507200541 53 0 3.5 7.8 0.00 0.00 0.00 33
20260507195540 53 0 1.7 7.8 0.00 0.00 0.00 33
20260507194540 52 0 4.3 8.7 0.00 0.00 0.00 32
20260507193539 52 0 1.7 7.8 0.00 0.00 0.00 35
20260507192539 51 0 2.6 7.8 0.00 0.00 0.00 35
20260507191540 50 0 2.6 7.8 0.00 0.00 0.00 36
20260507190540 50 0 3.5 8.7 0.00 0.00 0.00 35
20260507185539 50 0 2.6 8.7 0.00 0.00 0.00 36
20260507184559 52 0 0.9 5.2 0.00 0.00 0.00 37
20260507183539 50 0 0.9 3.5 0.00 0.00 0.00 40
20260507182538 0 0.0 0.0 0.00 0.00 0.00
20260507181536 0 0.0 0.0 0.00 0.00 0.00
20260507181037 0 0.0 0.0 0.00 0.00 0.00
20260507180037 0 0.0 0.0 0.00 0.00 0.00
20260507175036 0 0.0 0.0 0.00 0.00 0.00
20260507174036 0 0.0 0.0 0.00 0.00 0.00
20260507173037 0 0.0 0.0 0.00 0.00 0.00
20260507172039 0 0.0 0.0 0.00 0.00 0.00
20260507171057 0 0.0 0.0 0.00 0.00 0.00
20260507170037 0 0.0 0.0 0.00 0.00 0.00
20260507165057 0 0.0 0.0 0.00 0.00 0.00
20260507164038 0 0.0 0.0 0.00 0.00 0.00
20260507163038 0 0.0 0.0 0.00 0.00 0.00
20260507162058 0 0.0 0.0 0.00 0.00 0.00
20260507161037 0 0.0 0.0 0.00 0.00 0.00
20260507160036 0 0.0 0.0 0.00 0.00 0.00
20260507155037 0 0.0 0.0 0.00 0.00 0.00
20260507154036 0 0.0 0.0 0.00 0.00 0.00
20260507153038 0 0.0 0.0 0.00 0.00 0.00
20260507152036 0 0.0 0.0 0.00 0.00 0.00
20260507151037 0 0.0 0.0 0.00 0.00 0.00
20260507150037 0 0.0 0.0 0.00 0.00 0.00
20260507145037 0 0.0 0.0 0.00 0.00 0.00
20260507144036 0 0.0 0.0 0.00 0.00 0.00
20260507143036 0 0.0 0.0 0.00 0.00 0.00
20260507142058 0 0.0 0.0 0.00 0.00 0.00
20260507141038 0 0.0 0.0 0.00 0.00 0.00
20260507140039 0 0.0 0.0 0.00 0.00 0.00
20260507135036 0 0.0 0.0 0.00 0.00 0.00
20260507134117 0 0.0 0.0 0.00 0.00 0.00
20260507133037 0 0.0 0.0 0.00 0.00 0.00
20260507132039 0 0.0 0.0 0.00 0.00 0.00
20260507131036 0 0.0 0.0 0.00 0.00 0.00
20260507130039 0 0.0 0.0 0.00 0.00 0.00
20260507125037 0 0.0 0.0 0.00 0.00 0.00
20260507124057 0 0.0 0.0 0.00 0.00 0.00
20260507123038 0 0.0 0.0 0.00 0.00 0.00
20260507122038 0 0.0 0.0 0.00 0.00 0.00
20260507121058 0 0.0 0.0 0.00 0.00 0.00
20260507120037 0 0.0 0.0 0.00 0.00 0.00
20260507115036 0 0.0 0.0 0.00 0.00 0.00
20260507114118 0 0.0 0.0 0.00 0.00 0.00
20260507113038 0 0.0 0.0 0.00 0.00 0.00
20260507112038 0 0.0 0.0 0.00 0.00 0.00
20260507111038 0 0.0 0.0 0.00 0.00 0.00
20260507110117 0 0.0 0.0 0.00 0.00 0.00
20260507105036 0 0.0 0.0 0.00 0.00 0.00
20260507104038 0 0.0 0.0 0.00 0.00 0.00
20260507103037 0 0.0 0.0 0.00 0.00 0.00
20260507102037 0 0.0 0.0 0.00 0.00 0.00
20260507101037 0 0.0 0.0 0.00 0.00 0.00
20260507100036 0 0.0 0.0 0.00 0.00 0.00
20260507095037 0 0.0 0.0 0.00 0.00 0.00
20260507094035 0 0.0 0.0 0.00 0.00 0.00
20260507093039 0 0.0 0.0 0.00 0.00 0.00
20260507092037 0 0.0 0.0 0.00 0.00 0.00
20260507091035 0 0.0 0.0 0.00 0.00 0.00
20260507090058 0 0.0 0.0 0.00 0.00 0.00
20260507085038 0 0.0 0.0 0.00 0.00 0.00
20260507084038 0 0.0 0.0 0.00 0.00 0.00
20260507083057 0 0.0 0.0 0.00 0.00 0.00
20260507082038 0 0.0 0.0 0.00 0.00 0.00
20260507081537 0 0.0 0.0 0.00 0.00 0.00
20260507080536 0 0.0 0.0 0.00 0.00 0.00
20260507075557 0 0.0 0.0 0.00 0.00 0.00
20260507074536 0 0.0 0.0 0.00 0.00 0.00
20260507074036 0 0.0 0.0 0.00 0.00 0.00
20260507073058 0 0.0 0.0 0.00 0.00 0.00
20260507072038 0 0.0 0.0 0.00 0.00 0.00
20260507071038 0 0.0 0.0 0.00 0.00 0.00
20260507070035 0 0.0 0.0 0.00 0.00 0.00
20260507065059 0 0.0 0.0 0.00 0.00 0.00
20260507064035 0 0.0 0.0 0.00 0.00 0.00
20260507063038 0 0.0 0.0 0.00 0.00 0.00
20260507062037 0 0.0 0.0 0.00 0.00 0.00
20260507061037 0 0.0 0.0 0.00 0.00 0.00
20260507060159 0 0.0 0.0 0.00 0.00 0.00
20260507055036 0 0.0 0.0 0.00 0.00 0.00
20260507054037 0 0.0 0.0 0.00 0.00 0.00
20260507053037 0 0.0 0.0 0.00 0.00 0.00
20260507052037 0 0.0 0.0 0.00 0.00 0.00
20260507051037 0 0.0 0.0 0.00 0.00 0.00
20260507050035 0 0.0 0.0 0.00 0.00 0.00
20260507045035 0 0.0 0.0 0.00 0.00 0.00